Location: Alma
(38.7220°N, 88.9090°W)
Time: 00:05:01
(UTC-06:00)

Transit 4A - All Passes

Search period start: 20 November 2019 00:00
Search period end: 30 November 2019 00:00
Orbit: 869 x 976 km, 66.8° (Epoch: 18 November)

Date Brightness Start Highest point End Pass type
(mag) Time Alt. Az. Time Alt. Az. Time Alt. Az.
20 Nov - 04:41:06 10° N 04:43:57 13° NE 04:46:45 10° ENE visible
20 Nov - 06:25:29 10° NNW 06:31:23 73° ENE 06:37:10 10° SE daylight
20 Nov - 08:13:48 10° WNW 08:16:59 15° WSW 08:20:09 10° SW daylight
20 Nov - 19:46:27 10° SSE 19:50:47 20° ESE 19:55:04 10° ENE night (unlit)
20 Nov - 21:30:21 10° SW 21:36:36 65° WNW 21:42:42 10° NNE night (unlit)
20 Nov - 23:21:23 10° WNW 23:24:08 13° NW 23:26:52 10° NNW night (unlit)
21 Nov - 04:49:37 10° N 04:53:42 19° NE 04:57:44 10° E visible
21 Nov - 06:34:50 10° NNW 06:40:42 76° WSW 06:46:28 10° SSE daylight
21 Nov - 19:54:32 10° SSE 19:59:53 30° ESE 20:05:09 10° NE night (unlit)
21 Nov - 21:40:04 10° SW 21:46:02 44° NW 21:51:53 10° NNE night (unlit)
22 Nov - 04:58:26 10° N 05:03:21 26° NE 05:08:11 10° ESE visible
22 Nov - 06:44:19 10° NW 06:49:56 49° WSW 06:55:29 10° S daylight
22 Nov - 20:03:07 10° S 20:09:04 45° ESE 20:14:54 10° NE night (unlit)
22 Nov - 21:50:04 10° WSW 21:55:33 31° NW 22:00:57 10° N night (unlit)
23 Nov - 05:07:27 10° NNW 05:12:55 38° NE 05:18:16 10° ESE visible
23 Nov - 06:54:00 10° NW 06:59:06 32° WSW 07:04:08 10° S daylight
23 Nov - 20:12:04 10° SSW 20:18:18 69° ESE 20:24:25 10° NNE visible
23 Nov - 22:00:25 10° W 22:05:11 22° NW 22:09:52 10° N night (unlit)
24 Nov - 03:33:15 10° NNE 03:34:39 11° NE 03:36:02 10° NE visible
24 Nov - 05:16:35 10° NNW 05:22:23 56° ENE 05:28:03 10° SE visible
24 Nov - 07:04:02 10° WNW 07:08:12 20° WSW 07:12:20 10° SSW daylight
24 Nov - 18:38:45 10° SE 18:42:01 15° ESE 18:45:13 10° ENE visible
24 Nov - 20:21:19 10° SSW 20:27:37 82° WNW 20:33:46 10° NNE visible
24 Nov - 22:11:12 10° W 22:14:53 16° NW 22:18:32 10° N night (unlit)
25 Nov - 03:41:08 10° N 03:44:29 15° NE 03:47:47 10° ENE visible
25 Nov - 05:25:51 10° NNW 05:31:45 84° ENE 05:37:33 10° SSE visible
25 Nov - 07:14:53 10° WNW 07:17:13 12° WSW 07:19:33 10° SW daylight
25 Nov - 18:46:18 10° SSE 18:51:04 23° ESE 18:55:46 10° ENE visible
25 Nov - 20:30:52 10° SW 20:37:00 56° WNW 20:43:02 10° NNE visible
25 Nov - 22:22:45 10° NW 22:24:42 11° NW 22:26:38 10° NNW night (unlit)
26 Nov - 03:49:47 10° N 03:54:11 21° NE 03:58:32 10° E visible
26 Nov - 05:35:14 10° NW 05:41:03 65° WSW 05:46:45 10° SSE visible
26 Nov - 18:54:36 10° S 19:00:12 35° ESE 19:05:42 10° NE visible
26 Nov - 20:40:41 10° WSW 20:46:28 39° NW 20:52:09 10° NNE visible
27 Nov - 03:58:42 10° N 04:03:49 30° NE 04:08:51 10° ESE visible
27 Nov - 05:44:47 10° NW 05:50:15 42° WSW 05:55:39 10° S visible
27 Nov - 19:03:20 10° S 19:09:24 53° ESE 19:15:20 10° NE visible
27 Nov - 20:50:48 10° WSW 20:56:01 27° NW 21:01:10 10° N visible
28 Nov - 04:07:44 10° NNW 04:13:20 43° NE 04:18:49 10° SE visible
28 Nov - 05:54:35 10° NW 05:59:23 27° WSW 06:04:10 10° SSW visible
28 Nov - 17:32:19 10° ESE 17:33:16 10° E 17:34:13 10° E visible
28 Nov - 19:12:24 10° SSW 19:18:40 79° ESE 19:24:48 10° NNE visible
28 Nov - 21:01:17 10° W 21:05:40 20° NW 21:10:01 10° N visible
29 Nov - 02:32:55 10° NNE 02:35:12 12° NE 02:37:29 10° ENE visible
29 Nov - 04:16:56 10° NNW 04:22:46 65° ENE 04:28:30 10° SE visible
29 Nov - 06:04:48 10° WNW 06:08:27 17° WSW 06:12:06 10° SW visible
29 Nov - 17:38:23 10° SE 17:42:17 17° ESE 17:46:08 10° ENE visible
29 Nov - 19:21:45 10° SW 19:28:00 72° WNW 19:34:08 10° NNE visible
29 Nov - 21:12:16 10° WNW 21:15:26 14° NW 21:18:33 10° N visible
